Terug naar catalogus

USA 430

ActiefMilitairVLEO
NORAD 61653·PAYLOAD·🇺🇸 United States

Gelanceerd Oct 24, 2024 vanaf Vandenberg Space Force Base

Loading…

Volgende Passages (komende 24 uur)

TLE

VerouderdSource: Mike McCants

Epoch: Aug 12, 2026, 20:23 UTC

1 61653U 24192K   26224.84937067 0.00000000  00000-0  00000-0 0    02
2 61653  70.0223 124.5852 0003000 170.6993 189.3007 14.96713560    02

Volg USA 430 in realtime met AllMySat

Download on the App Store